| time (UTC) | temp F | wind direction | speed knots | gust knots | rain 1hr in | rain 24hr in | rain mn in | humidity % | barometer mb |
| 20260904220605 | 55 | 212 | 0.9 | 1.7 | 0.00 | 0.06 | 0.06 | 83 | 1020.4 |
| 20260904220105 | 56 | 208 | 0.0 | 2.6 | 0.00 | 0.06 | 0.06 | 82 | 1020.4 |
| 20260904210604 | 57 | 229 | 0.9 | 1.7 | 0.00 | 0.06 | 0.06 | 79 | 1019.9 |
| 20260904210105 | 57 | 226 | 1.7 | 6.1 | 0.00 | 0.06 | 0.06 | 79 | 1019.9 |
| 20260904200604 | 59 | 251 | 3.5 | 6.1 | 0.00 | 0.06 | 0.06 | 75 | 1019.5 |
| 20260904200105 | 59 | 257 | 2.6 | 10.4 | 0.00 | 0.06 | 0.06 | 75 | 1019.5 |
| 20260904190604 | 61 | 272 | 3.5 | 8.7 | 0.00 | 0.06 | 0.06 | 73 | 1019.1 |
| 20260904190105 | 61 | 244 | 4.3 | 8.7 | 0.00 | 0.06 | 0.06 | 73 | 1019.0 |
| 20260904180604 | 63 | 261 | 3.5 | 7.8 | 0.00 | 0.06 | 0.06 | 68 | 1018.4 |
| 20260904180105 | 63 | 255 | 5.2 | 12.2 | 0.00 | 0.06 | 0.06 | 68 | 1018.3 |
| 20260904170604 | 63 | 254 | 4.3 | 12.2 | 0.00 | 0.06 | 0.06 | 63 | 1017.9 |
| 20260904170112 | 64 | 261 | 4.3 | 13.0 | 0.00 | 0.06 | 0.06 | 63 | 1017.8 |
| 20260904160604 | 65 | 267 | 4.3 | 10.4 | 0.00 | 0.06 | 0.06 | 63 | 1017.5 |
| 20260904160105 | 65 | 249 | 6.1 | 11.3 | 0.00 | 0.06 | 0.06 | 62 | 1017.7 |
| 20260904150604 | 65 | 281 | 5.2 | 11.3 | 0.00 | 0.06 | 0.06 | 60 | 1017.2 |
| 20260904150105 | 66 | 286 | 6.1 | 11.3 | 0.00 | 0.06 | 0.06 | 60 | 1017.3 |
| 20260904140105 | 65 | 271 | 2.6 | 11.3 | 0.00 | 0.06 | 0.06 | 62 | 1016.7 |
| 20260904130604 | 66 | 280 | 2.6 | 8.7 | 0.00 | 0.06 | 0.06 | 70 | 1016.5 |
| 20260904130120 | 65 | 272 | 3.5 | 10.4 | 0.00 | 0.06 | 0.06 | 70 | 1016.4 |
| 20260904120604 | 67 | 294 | 4.3 | 10.4 | 0.00 | 0.06 | 0.06 | 72 | 1015.7 |
| 20260904120105 | 67 | 281 | 4.3 | 18.2 | 0.00 | 0.06 | 0.06 | 71 | 1015.6 |
| 20260904110604 | 67 | 257 | 2.6 | 11.3 | 0.00 | 0.06 | 0.06 | 73 | 1015.2 |
| 20260904100605 | 66 | 262 | 4.3 | 12.2 | 0.00 | 0.06 | 0.06 | 74 | 1014.7 |
| 20260904100105 | 66 | 279 | 6.1 | 13.0 | 0.00 | 0.06 | 0.06 | 74 | 1014.7 |
| 20260904090605 | 64 | 272 | 5.2 | 10.4 | 0.00 | 0.06 | 0.06 | 83 | 1014.1 |
| 20260904090104 | 64 | 243 | 5.2 | 13.0 | 0.00 | 0.06 | 0.06 | 83 | 1014.0 |
| 20260904080603 | 64 | 270 | 4.3 | 8.7 | 0.00 | 0.06 | 0.06 | 86 | 1013.4 |
| 20260904080104 | 64 | 280 | 2.6 | 11.3 | 0.00 | 0.06 | 0.06 | 87 | 1013.4 |
| 20260904070603 | 64 | 259 | 4.3 | 7.8 | 0.06 | 0.06 | 0.06 | 87 | 1013.0 |
| 20260904060603 | 67 | 201 | 3.5 | 7.8 | 0.00 | 0.00 | 0.00 | 88 | 1011.9 |
| 20260904060104 | 67 | 219 | 2.6 | 13.0 | 0.00 | 0.00 | 0.00 | 88 | 1012.0 |
| 20260904050603 | 67 | 189 | 4.3 | 13.9 | 0.00 | 0.00 | 0.00 | 85 | 1011.8 |
| 20260904050103 | 68 | 207 | 5.2 | 15.6 | 0.00 | 0.00 | 0.00 | 85 | 1011.8 |
| 20260904040603 | 67 | 177 | 5.2 | 13.0 | 0.00 | 0.00 | 0.00 | 87 | 1011.7 |
| 20260904030104 | 67 | 220 | 4.3 | 19.1 | 0.00 | 0.00 | 0.00 | 87 | 1012.7 |
| 20260904020603 | 67 | 215 | 6.1 | 13.9 | 0.00 | 0.00 | 0.00 | 87 | 1013.0 |
| 20260904010603 | 66 | 217 | 4.3 | 10.4 | 0.00 | 0.00 | 0.00 | 88 | 1013.6 |
| 20260904000603 | 66 | 209 | 3.5 | 12.2 | 0.00 | 0.00 | 0.00 | 87 | 1014.3 |
| 20260904000104 | 66 | 213 | 6.1 | 15.6 | 0.00 | 0.00 | 0.00 | 87 | 1014.2 |